TRA51K LGMT-EHAM

Flight info

Callsign TRA51K
Flight time 2h 47m
Altitude 36000
Route ERESO UN128 PEREN UL863 EVIVI L863 OKANA DCT RAVAK DCT BABIT DCT SASAL DCT DEXIT DCT MAPOX L604 BIGGE DCT AMSAN T281 NORKU
Aircraft B738/M-SDE2E3FGHIJ1RWXYZ/LB1

Departure

Time 2026-05-05 13:42
Airport Mytilene International Airport (LGMT)

Arrival

Time 2026-05-05 16:29
Airport Amsterdam Airport Schiphol (EHAM)
Time Latitude Longitude Altitude Speed Heading
2026-05-05 13:23 39.06140 26.59870 22 ft 0 kts 57°
2026-05-05 13:34 39.06139 26.59869 22 ft 1 kts 57°
2026-05-05 13:35 39.06132 26.59853 22 ft 3 kts 57°
2026-05-05 13:35 39.06121 26.59832 22 ft 2 kts 58°
2026-05-05 13:35 39.06112 26.59810 22 ft 3 kts 76°
2026-05-05 13:35 39.06110 26.59787 23 ft 3 kts 113°
2026-05-05 13:36 39.06121 26.59767 23 ft 3 kts 143°
2026-05-05 13:36 39.06135 26.59755 23 ft 1 kts 148°
2026-05-05 13:36 39.06136 26.59754 23 ft 1 kts 148°
2026-05-05 13:38 39.06131 26.59759 23 ft 3 kts 148°
2026-05-05 13:38 39.06089 26.59792 23 ft 10 kts 148°
2026-05-05 13:38 39.06025 26.59815 23 ft 10 kts 190°
2026-05-05 13:38 39.05959 26.59794 27 ft 10 kts 193°
2026-05-05 13:39 39.05891 26.59785 29 ft 12 kts 170°
2026-05-05 13:39 39.05795 26.59848 27 ft 19 kts 148°
2026-05-05 13:39 39.05666 26.59952 24 ft 25 kts 148°
2026-05-05 13:39 39.05504 26.60080 23 ft 28 kts 148°
2026-05-05 13:40 39.05341 26.60213 23 ft 27 kts 148°
2026-05-05 13:40 39.05187 26.60336 25 ft 25 kts 148°
2026-05-05 13:40 39.05044 26.60450 28 ft 23 kts 149°
2026-05-05 13:40 39.04942 26.60544 28 ft 14 kts 125°
2026-05-05 13:41 39.04897 26.60594 28 ft 5 kts 210°
2026-05-05 13:41 39.04914 26.60555 28 ft 6 kts 324°
2026-05-05 13:41 39.04977 26.60503 28 ft 30 kts 328°
2026-05-05 13:41 39.05422 26.60148 23 ft 118 kts 328°
2026-05-05 13:42 39.06327 26.59421 154 ft 178 kts 327°
2026-05-05 13:42 39.07371 26.58561 1215 ft 178 kts 326°
2026-05-05 13:42 39.08422 26.57697 2241 ft 183 kts 327°
2026-05-05 13:42 39.09597 26.56769 2689 ft 214 kts 328°
2026-05-05 13:43 39.10954 26.55710 3001 ft 241 kts 328°
2026-05-05 13:43 39.12470 26.54524 3400 ft 265 kts 328°
2026-05-05 13:43 39.14064 26.53270 4320 ft 270 kts 328°
2026-05-05 13:43 39.15554 26.51792 5334 ft 272 kts 316°
2026-05-05 13:44 39.16923 26.50081 6269 ft 277 kts 315°
2026-05-05 13:44 39.18318 26.48334 7175 ft 282 kts 316°
2026-05-05 13:44 39.19753 26.46584 8046 ft 286 kts 316°
2026-05-05 13:44 39.21220 26.44820 8888 ft 291 kts 316°
2026-05-05 13:45 39.22649 26.42957 9685 ft 295 kts 304°
2026-05-05 13:45 39.23451 26.40523 10403 ft 302 kts 283°
2026-05-05 13:45 39.23858 26.37762 10620 ft 326 kts 278°
2026-05-05 13:45 39.24204 26.34774 10806 ft 348 kts 278°
2026-05-05 13:46 39.24561 26.31623 11202 ft 360 kts 278°
2026-05-05 13:46 39.24941 26.28403 11805 ft 365 kts 278°
2026-05-05 13:46 39.25337 26.25193 12444 ft 368 kts 279°
2026-05-05 13:46 39.25753 26.21890 13046 ft 371 kts 279°
2026-05-05 13:47 39.26170 26.18585 13601 ft 375 kts 279°
2026-05-05 13:47 39.26592 26.15247 14135 ft 379 kts 279°
2026-05-05 13:47 39.27010 26.11923 14653 ft 382 kts 279°
2026-05-05 13:47 39.27437 26.08525 15151 ft 385 kts 279°
2026-05-05 13:48 39.27873 26.05050 15609 ft 389 kts 279°
2026-05-05 13:48 39.28307 26.01584 16060 ft 393 kts 279°
2026-05-05 13:48 39.28738 25.98142 16491 ft 395 kts 279°
2026-05-05 13:48 39.29583 25.94762 16834 ft 401 kts 298°
2026-05-05 13:49 39.31281 25.91914 17253 ft 403 kts 316°
2026-05-05 13:49 39.33392 25.89516 17647 ft 406 kts 319°
2026-05-05 13:49 39.35557 25.87147 17934 ft 410 kts 319°
2026-05-05 13:49 39.37747 25.84768 18337 ft 411 kts 319°
2026-05-05 13:50 39.39937 25.82376 18635 ft 414 kts 319°
2026-05-05 13:50 39.42132 25.79958 19029 ft 414 kts 319°
2026-05-05 13:50 39.44325 25.77527 19349 ft 417 kts 319°
2026-05-05 13:50 39.46528 25.75071 19612 ft 420 kts 319°
2026-05-05 13:51 39.48755 25.72580 19747 ft 425 kts 319°
2026-05-05 13:51 39.50993 25.70072 20086 ft 425 kts 319°
2026-05-05 13:51 39.53227 25.67565 20418 ft 425 kts 319°
2026-05-05 13:51 39.55467 25.65049 20585 ft 429 kts 319°
2026-05-05 13:52 39.57731 25.62503 20776 ft 432 kts 319°
2026-05-05 13:52 39.59995 25.59956 21124 ft 430 kts 319°
2026-05-05 13:52 39.62253 25.57414 21390 ft 431 kts 319°
2026-05-05 13:52 39.64523 25.54856 21576 ft 433 kts 319°
2026-05-05 13:53 39.66805 25.52281 21712 ft 437 kts 319°
2026-05-05 13:53 39.69104 25.49685 21867 ft 439 kts 319°
2026-05-05 13:53 39.71404 25.47086 22114 ft 438 kts 319°
2026-05-05 13:53 39.73704 25.44485 22326 ft 439 kts 319°
2026-05-05 13:54 39.76013 25.41871 22489 ft 441 kts 319°
2026-05-05 13:54 39.78328 25.39247 22601 ft 443 kts 319°
2026-05-05 13:54 39.80663 25.36598 22682 ft 446 kts 318°
2026-05-05 13:54 39.82998 25.33947 22913 ft 445 kts 318°
2026-05-05 13:55 39.85326 25.31301 23143 ft 444 kts 318°
2026-05-05 13:55 39.87657 25.28649 23259 ft 446 kts 318°
2026-05-05 13:55 39.89999 25.25983 23354 ft 448 kts 318°
2026-05-05 13:55 39.92267 25.23193 23463 ft 449 kts 312°
2026-05-05 13:56 39.94191 25.19985 23594 ft 450 kts 305°
2026-05-05 13:56 39.95964 25.16690 23726 ft 450 kts 304°
2026-05-05 13:56 39.97767 25.13283 23835 ft 451 kts 304°
2026-05-05 13:56 39.99550 25.09912 23937 ft 452 kts 304°
2026-05-05 13:57 40.01347 25.06535 24038 ft 453 kts 304°
2026-05-05 13:57 40.03153 25.03164 24142 ft 454 kts 304°
2026-05-05 13:57 40.04965 24.99795 24246 ft 454 kts 304°
2026-05-05 13:57 40.06788 24.96414 24357 ft 455 kts 304°
2026-05-05 13:58 40.08611 24.93034 24453 ft 455 kts 304°
2026-05-05 13:58 40.10436 24.89650 24538 ft 456 kts 304°
2026-05-05 13:58 40.12262 24.86258 24619 ft 457 kts 304°
2026-05-05 13:58 40.14067 24.82904 24705 ft 457 kts 304°
2026-05-05 13:59 40.17728 24.76085 24856 ft 459 kts 304°
2026-05-05 13:59 40.19559 24.72668 24933 ft 459 kts 304°
2026-05-05 14:00 40.23227 24.65811 25055 ft 461 kts 304°
2026-05-05 14:00 40.24470 24.63484 25070 ft 462 kts 304°
2026-05-05 14:00 40.26904 24.58922 25186 ft 462 kts 304°
2026-05-05 14:00 40.28744 24.55470 25195 ft 463 kts 304°
2026-05-05 14:01 40.30586 24.52010 25270 ft 463 kts 304°
2026-05-05 14:01 40.32428 24.48547 25359 ft 463 kts 304°
2026-05-05 14:01 40.34267 24.45085 25419 ft 463 kts 304°
2026-05-05 14:01 40.36107 24.41617 25460 ft 464 kts 304°
2026-05-05 14:02 40.37946 24.38147 25500 ft 464 kts 304°
2026-05-05 14:02 40.39790 24.34664 25545 ft 465 kts 304°
2026-05-05 14:02 40.41630 24.31185 25592 ft 465 kts 304°
2026-05-05 14:02 40.43473 24.27695 25634 ft 465 kts 304°
2026-05-05 14:03 40.45315 24.24203 25645 ft 466 kts 304°
2026-05-05 14:03 40.47163 24.20697 25690 ft 466 kts 304°
2026-05-05 14:03 40.49006 24.17196 25747 ft 466 kts 304°
2026-05-05 14:03 40.50848 24.13693 25788 ft 466 kts 304°
2026-05-05 14:04 40.52692 24.10181 25823 ft 467 kts 304°
2026-05-05 14:04 40.54543 24.06655 25954 ft 469 kts 304°
2026-05-05 14:04 40.56397 24.03118 26139 ft 470 kts 304°
2026-05-05 14:04 40.58387 23.99712 26299 ft 471 kts 312°
2026-05-05 14:05 40.60784 23.96764 26445 ft 473 kts 321°
2026-05-05 14:05 40.63487 23.94300 26581 ft 474 kts 330°
2026-05-05 14:05 40.66441 23.92343 26714 ft 475 kts 334°
2026-05-05 14:05 40.68428 23.91119 26797 ft 476 kts 335°
2026-05-05 14:06 40.71435 23.89294 26907 ft 478 kts 335°
2026-05-05 14:06 40.75440 23.86853 27052 ft 479 kts 334°
2026-05-05 14:06 40.78467 23.84981 27181 ft 482 kts 334°
2026-05-05 14:06 40.81495 23.83088 27378 ft 483 kts 334°
2026-05-05 14:07 40.84530 23.81177 27584 ft 483 kts 334°
2026-05-05 14:07 40.87563 23.79258 27756 ft 485 kts 334°
2026-05-05 14:07 40.89625 23.77952 27858 ft 486 kts 334°
2026-05-05 14:07 40.92673 23.76018 28030 ft 486 kts 334°
2026-05-05 14:08 40.95670 23.74115 28451 ft 481 kts 334°
2026-05-05 14:08 40.98663 23.72215 28970 ft 474 kts 334°
2026-05-05 14:08 41.01619 23.70336 29465 ft 468 kts 334°
2026-05-05 14:08 41.04546 23.68475 29865 ft 465 kts 334°
2026-05-05 14:09 41.07460 23.66619 30114 ft 465 kts 334°
2026-05-05 14:09 41.10368 23.64767 30428 ft 463 kts 334°
2026-05-05 14:09 41.13272 23.62913 30636 ft 464 kts 334°
2026-05-05 14:09 41.16189 23.61050 30793 ft 466 kts 334°
2026-05-05 14:10 41.19116 23.59180 31000 ft 467 kts 334°
2026-05-05 14:10 41.22036 23.57312 31274 ft 465 kts 334°
2026-05-05 14:10 41.24953 23.55445 31535 ft 465 kts 334°
2026-05-05 14:10 41.27862 23.53583 31827 ft 463 kts 334°
2026-05-05 14:11 41.30762 23.51726 32045 ft 463 kts 334°
2026-05-05 14:11 41.33671 23.49860 32176 ft 465 kts 334°
2026-05-05 14:11 41.36591 23.47986 32336 ft 466 kts 334°
2026-05-05 14:11 41.39504 23.46114 32676 ft 463 kts 334°
2026-05-05 14:12 41.42390 23.44253 32973 ft 461 kts 334°
2026-05-05 14:12 41.45278 23.42377 33088 ft 463 kts 333°
2026-05-05 14:12 41.51097 23.38579 33286 ft 467 kts 333°
2026-05-05 14:13 41.54017 23.36670 33457 ft 468 kts 333°
2026-05-05 14:13 41.56937 23.34759 33630 ft 468 kts 333°
2026-05-05 14:13 41.59857 23.32847 33835 ft 467 kts 333°
2026-05-05 14:13 41.62774 23.30936 33978 ft 468 kts 333°
2026-05-05 14:14 41.68666 23.27071 34007 ft 475 kts 333°
2026-05-05 14:14 41.74639 23.23145 34009 ft 482 kts 333°
2026-05-05 14:15 41.80695 23.19156 34011 ft 488 kts 333°
2026-05-05 14:15 41.86814 23.15117 34008 ft 493 kts 333°
2026-05-05 14:16 41.92997 23.11027 34007 ft 497 kts 333°
2026-05-05 14:16 41.99223 23.06898 34000 ft 501 kts 333°
2026-05-05 14:17 42.05491 23.02734 34004 ft 504 kts 333°
2026-05-05 14:17 42.11794 22.98536 34002 ft 506 kts 333°
2026-05-05 14:18 42.18121 22.94313 34001 ft 509 kts 333°
2026-05-05 14:18 42.24425 22.90096 34005 ft 510 kts 333°
2026-05-05 14:19 42.30795 22.85825 34001 ft 512 kts 333°
2026-05-05 14:19 42.37176 22.81533 34004 ft 513 kts 333°
2026-05-05 14:20 42.43575 22.77217 33998 ft 513 kts 333°
2026-05-05 14:20 42.49937 22.72917 33997 ft 510 kts 333°
2026-05-05 14:21 42.56292 22.68611 34006 ft 511 kts 333°
2026-05-05 14:21 42.62658 22.64289 34000 ft 512 kts 333°
2026-05-05 14:22 42.69023 22.59954 34002 ft 512 kts 333°
2026-05-05 14:22 42.75389 22.55608 34001 ft 512 kts 333°
2026-05-05 14:23 42.81752 22.51254 34001 ft 512 kts 333°
2026-05-05 14:23 42.87866 22.46314 34010 ft 511 kts 323°
2026-05-05 14:24 42.93546 22.40450 34001 ft 512 kts 322°
2026-05-05 14:24 42.99189 22.34502 34002 ft 513 kts 321°
2026-05-05 14:25 43.04779 22.28427 34001 ft 514 kts 321°
2026-05-05 14:25 43.10352 22.22307 34002 ft 514 kts 321°
2026-05-05 14:26 43.15929 22.16187 34002 ft 514 kts 321°
2026-05-05 14:26 43.21513 22.10064 34005 ft 514 kts 321°
2026-05-05 14:27 43.27066 22.03967 33997 ft 515 kts 321°
2026-05-05 14:27 43.32652 21.97819 34003 ft 515 kts 321°
2026-05-05 14:28 43.38234 21.91658 34000 ft 515 kts 321°
2026-05-05 14:28 43.43814 21.85485 34000 ft 515 kts 321°
2026-05-05 14:29 43.49393 21.79297 34001 ft 515 kts 321°
2026-05-05 14:29 43.54968 21.73098 34003 ft 515 kts 321°
2026-05-05 14:30 43.60540 21.66889 33998 ft 515 kts 321°
2026-05-05 14:30 43.66109 21.60666 34003 ft 515 kts 321°
2026-05-05 14:31 43.71675 21.54433 34000 ft 515 kts 320°
2026-05-05 14:31 43.77234 21.48191 34003 ft 515 kts 320°
2026-05-05 14:32 43.82794 21.41932 34000 ft 515 kts 320°
2026-05-05 14:32 43.88350 21.35664 34001 ft 515 kts 320°
2026-05-05 14:33 43.93898 21.29387 34001 ft 515 kts 320°
2026-05-05 14:33 43.99446 21.23096 34000 ft 515 kts 320°
2026-05-05 14:34 44.04985 21.16799 34001 ft 514 kts 320°
2026-05-05 14:34 44.10507 21.10505 34001 ft 513 kts 320°
2026-05-05 14:35 44.15991 21.04239 34001 ft 513 kts 320°
2026-05-05 14:35 44.21542 20.97883 34002 ft 513 kts 320°
2026-05-05 14:36 44.27016 20.91597 34002 ft 513 kts 320°
2026-05-05 14:36 44.32530 20.85250 34001 ft 514 kts 320°
2026-05-05 14:37 44.38041 20.78891 34001 ft 514 kts 320°
2026-05-05 14:37 44.43586 20.72475 34002 ft 514 kts 320°
2026-05-05 14:38 44.49060 20.66127 34001 ft 514 kts 320°
2026-05-05 14:38 44.54564 20.59726 34001 ft 514 kts 320°
2026-05-05 14:39 44.60068 20.53310 34002 ft 515 kts 320°
2026-05-05 14:39 44.65570 20.46880 34001 ft 515 kts 320°
2026-05-05 14:40 44.71014 20.40501 33991 ft 502 kts 320°
2026-05-05 14:40 44.76339 20.34246 34002 ft 498 kts 320°
2026-05-05 14:41 44.81643 20.28000 34002 ft 497 kts 320°
2026-05-05 14:41 44.86940 20.21746 34001 ft 496 kts 320°
2026-05-05 14:42 44.92224 20.15493 34001 ft 495 kts 320°
2026-05-05 14:42 44.97504 20.09229 34007 ft 497 kts 320°
2026-05-05 14:43 45.02816 20.02910 34007 ft 501 kts 319°
2026-05-05 14:43 45.08164 19.96534 34004 ft 504 kts 319°
2026-05-05 14:44 45.13537 19.90111 34003 ft 507 kts 319°
2026-05-05 14:44 45.18931 19.83647 34002 ft 509 kts 319°
2026-05-05 14:45 45.24304 19.77192 34000 ft 510 kts 319°
2026-05-05 14:45 45.29707 19.70685 33999 ft 509 kts 319°
2026-05-05 14:46 45.35096 19.64175 34000 ft 508 kts 319°
2026-05-05 14:46 45.40467 19.57670 34001 ft 507 kts 319°
2026-05-05 14:47 45.45831 19.51158 34001 ft 506 kts 319°
2026-05-05 14:47 45.51189 19.44637 34001 ft 506 kts 319°
2026-05-05 14:48 45.56531 19.38118 34001 ft 505 kts 319°
2026-05-05 14:48 45.61868 19.31588 34001 ft 505 kts 319°
2026-05-05 14:49 45.67194 19.25054 34001 ft 505 kts 319°
2026-05-05 14:49 45.72516 19.18508 34001 ft 504 kts 319°
2026-05-05 14:50 45.77833 19.11951 34001 ft 504 kts 319°
2026-05-05 14:50 45.83139 19.05391 34001 ft 504 kts 319°
2026-05-05 14:51 45.88445 18.98812 34001 ft 504 kts 319°
2026-05-05 14:51 45.93694 18.92157 33996 ft 503 kts 314°
2026-05-05 14:52 45.98252 18.84528 34000 ft 503 kts 308°
2026-05-05 14:52 46.02621 18.76671 34001 ft 503 kts 308°
2026-05-05 14:53 46.07009 18.68839 34001 ft 503 kts 309°
2026-05-05 14:53 46.11435 18.61040 34001 ft 503 kts 309°
2026-05-05 14:54 46.15873 18.53243 34001 ft 503 kts 309°
2026-05-05 14:54 46.19556 18.46758 34002 ft 503 kts 309°
2026-05-05 14:55 46.24699 18.37667 34001 ft 503 kts 309°
2026-05-05 14:55 46.29118 18.29829 34002 ft 503 kts 309°
2026-05-05 14:56 46.32783 18.23311 34001 ft 503 kts 309°
2026-05-05 14:56 46.37191 18.15451 34001 ft 503 kts 309°
2026-05-05 14:57 46.41594 18.07578 34002 ft 503 kts 308°
2026-05-05 14:57 46.45991 17.99694 34001 ft 503 kts 308°
2026-05-05 14:58 46.50385 17.91792 34001 ft 503 kts 308°
2026-05-05 14:58 46.54771 17.83882 34001 ft 503 kts 308°
2026-05-05 14:59 46.59151 17.75960 34001 ft 503 kts 308°
2026-05-05 14:59 46.63527 17.68024 34002 ft 503 kts 308°
2026-05-05 15:00 46.67160 17.61417 34001 ft 503 kts 308°
2026-05-05 15:00 46.72261 17.52113 34001 ft 503 kts 308°
2026-05-05 15:01 46.76613 17.44152 33999 ft 501 kts 308°
2026-05-05 15:01 46.80941 17.36210 34001 ft 499 kts 308°
2026-05-05 15:02 46.85254 17.28275 34002 ft 498 kts 308°
2026-05-05 15:02 46.89551 17.20345 34002 ft 497 kts 308°
2026-05-05 15:03 46.93833 17.12420 34000 ft 496 kts 308°
2026-05-05 15:03 46.98105 17.04492 34001 ft 495 kts 308°
2026-05-05 15:04 47.02333 16.96621 34001 ft 495 kts 308°
2026-05-05 15:04 47.06583 16.88687 34000 ft 494 kts 308°
2026-05-05 15:05 47.12944 16.76770 34000 ft 494 kts 308°
2026-05-05 15:06 47.17172 16.68819 34001 ft 494 kts 308°
2026-05-05 15:06 47.21397 16.60852 34001 ft 494 kts 307°
2026-05-05 15:07 47.25612 16.52880 34001 ft 493 kts 307°
2026-05-05 15:07 47.29831 16.44916 34001 ft 493 kts 308°
2026-05-05 15:08 47.34188 16.37107 34003 ft 493 kts 309°
2026-05-05 15:08 47.38592 16.29340 34000 ft 493 kts 309°
2026-05-05 15:09 47.42973 16.21544 34002 ft 493 kts 309°
2026-05-05 15:09 47.47336 16.13712 33999 ft 493 kts 309°
2026-05-05 15:10 47.51684 16.05866 34000 ft 493 kts 309°
2026-05-05 15:10 47.56027 15.98008 34003 ft 493 kts 309°
2026-05-05 15:11 47.60366 15.90136 33999 ft 493 kts 309°
2026-05-05 15:11 47.64701 15.82251 34002 ft 493 kts 309°
2026-05-05 15:12 47.69030 15.74355 34002 ft 493 kts 309°
2026-05-05 15:12 47.73354 15.66443 34001 ft 493 kts 309°
2026-05-05 15:13 47.77675 15.58514 33998 ft 494 kts 308°
2026-05-05 15:13 47.81988 15.50576 34000 ft 493 kts 308°
2026-05-05 15:14 47.86267 15.42678 34003 ft 493 kts 308°
2026-05-05 15:14 47.90570 15.34713 34000 ft 493 kts 308°
2026-05-05 15:15 47.94865 15.26739 33999 ft 493 kts 308°
2026-05-05 15:15 47.99155 15.18750 34004 ft 493 kts 308°
2026-05-05 15:16 48.03439 15.10749 34000 ft 493 kts 308°
2026-05-05 15:16 48.07718 15.02735 34001 ft 493 kts 308°
2026-05-05 15:17 48.11991 14.94706 34001 ft 493 kts 308°
2026-05-05 15:17 48.16257 14.86668 34002 ft 493 kts 308°
2026-05-05 15:18 48.20519 14.78613 34000 ft 493 kts 308°
2026-05-05 15:18 48.24778 14.70540 34001 ft 493 kts 308°
2026-05-05 15:19 48.29027 14.62462 34001 ft 493 kts 308°
2026-05-05 15:19 48.33274 14.54362 34000 ft 493 kts 308°
2026-05-05 15:20 48.37513 14.46253 34002 ft 493 kts 308°
2026-05-05 15:20 48.41748 14.38129 34002 ft 493 kts 308°
2026-05-05 15:21 48.45975 14.29994 34001 ft 493 kts 308°
2026-05-05 15:21 48.50168 14.21901 34001 ft 493 kts 307°
2026-05-05 15:22 48.54388 14.13732 34002 ft 493 kts 307°
2026-05-05 15:22 48.58596 14.05560 34002 ft 493 kts 307°
2026-05-05 15:23 48.62801 13.97368 34000 ft 493 kts 307°
2026-05-05 15:23 48.67001 13.89163 34002 ft 493 kts 307°
2026-05-05 15:24 48.71193 13.80947 34002 ft 493 kts 307°
2026-05-05 15:24 48.75381 13.72715 34001 ft 493 kts 307°
2026-05-05 15:25 48.79611 13.64533 34002 ft 493 kts 308°
2026-05-05 15:25 48.83920 13.56426 34000 ft 493 kts 308°
2026-05-05 15:26 48.88224 13.48317 34002 ft 493 kts 308°
2026-05-05 15:26 48.92512 13.40177 34001 ft 493 kts 308°
2026-05-05 15:27 48.96788 13.32011 34001 ft 493 kts 308°
2026-05-05 15:27 49.01054 13.23836 34001 ft 493 kts 308°
2026-05-05 15:28 49.05317 13.15644 34004 ft 493 kts 308°
2026-05-05 15:28 49.09573 13.07439 34001 ft 493 kts 308°
2026-05-05 15:29 49.13829 12.99209 34001 ft 494 kts 308°
2026-05-05 15:29 49.18076 12.90974 34003 ft 494 kts 308°
2026-05-05 15:30 49.22322 12.82713 34000 ft 494 kts 308°
2026-05-05 15:30 49.26556 12.74450 34002 ft 494 kts 308°
2026-05-05 15:31 49.30788 12.66167 34001 ft 494 kts 308°
2026-05-05 15:31 49.35011 12.57874 34001 ft 493 kts 307°
2026-05-05 15:32 49.39230 12.49562 34001 ft 493 kts 307°
2026-05-05 15:32 49.43442 12.41239 34001 ft 493 kts 307°
2026-05-05 15:33 49.47616 12.32966 34001 ft 493 kts 307°
2026-05-05 15:33 49.51818 12.24610 34001 ft 493 kts 307°
2026-05-05 15:34 49.56011 12.16246 34002 ft 493 kts 307°
2026-05-05 15:34 49.60196 12.07871 34001 ft 493 kts 307°
2026-05-05 15:35 49.64378 11.99477 34002 ft 493 kts 307°
2026-05-05 15:35 49.68554 11.91068 34001 ft 493 kts 307°
2026-05-05 15:36 49.72719 11.82654 34002 ft 493 kts 307°
2026-05-05 15:36 49.76882 11.74217 34000 ft 493 kts 307°
2026-05-05 15:37 49.81038 11.65768 34002 ft 493 kts 307°
2026-05-05 15:37 49.85187 11.57305 34001 ft 493 kts 307°
2026-05-05 15:38 49.89331 11.48826 34001 ft 493 kts 307°
2026-05-05 15:38 49.93466 11.40338 34002 ft 493 kts 307°
2026-05-05 15:39 49.97600 11.31824 34001 ft 493 kts 307°
2026-05-05 15:39 50.01725 11.23304 34001 ft 493 kts 307°
2026-05-05 15:40 50.05843 11.14767 34001 ft 493 kts 306°
2026-05-05 15:40 50.09955 11.06217 34002 ft 493 kts 306°
2026-05-05 15:41 50.14064 10.97646 34002 ft 493 kts 306°
2026-05-05 15:41 50.18163 10.89066 34001 ft 493 kts 306°
2026-05-05 15:42 50.22259 10.80466 34001 ft 493 kts 306°
2026-05-05 15:42 50.26319 10.71912 34001 ft 493 kts 306°
2026-05-05 15:43 50.30401 10.63284 34002 ft 493 kts 306°
2026-05-05 15:43 50.34476 10.54645 34001 ft 493 kts 306°
2026-05-05 15:44 50.38543 10.45992 34001 ft 493 kts 306°
2026-05-05 15:44 50.42604 10.37323 34001 ft 493 kts 306°
2026-05-05 15:45 50.46662 10.28633 34002 ft 493 kts 306°
2026-05-05 15:45 50.50025 10.21409 34000 ft 493 kts 306°
2026-05-05 15:46 50.54068 10.12698 34003 ft 493 kts 306°
2026-05-05 15:46 50.58111 10.03959 34001 ft 493 kts 306°
2026-05-05 15:47 50.62143 9.95212 34002 ft 493 kts 306°
2026-05-05 15:47 50.66163 9.86465 34001 ft 494 kts 306°
2026-05-05 15:48 50.70183 9.77685 34002 ft 493 kts 305°
2026-05-05 15:48 50.74196 9.68895 34003 ft 494 kts 305°
2026-05-05 15:49 50.78201 9.60090 34001 ft 494 kts 305°
2026-05-05 15:49 50.82200 9.51269 34001 ft 494 kts 305°
2026-05-05 15:50 50.86196 9.42425 34000 ft 494 kts 305°
2026-05-05 15:50 50.90183 9.33570 34002 ft 494 kts 305°
2026-05-05 15:51 50.94136 9.24763 34001 ft 494 kts 305°
2026-05-05 15:51 50.98109 9.15880 34000 ft 494 kts 305°
2026-05-05 15:52 51.02071 9.06990 34002 ft 494 kts 305°
2026-05-05 15:52 51.06034 8.98069 34001 ft 494 kts 305°
2026-05-05 15:53 51.09988 8.89137 34001 ft 494 kts 304°
2026-05-05 15:53 51.13953 8.80216 34001 ft 494 kts 306°
2026-05-05 15:54 51.18226 8.71649 34003 ft 494 kts 309°
2026-05-05 15:54 51.22595 8.63190 34000 ft 494 kts 309°
2026-05-05 15:55 51.26913 8.54661 34001 ft 494 kts 308°
2026-05-05 15:55 51.31208 8.46089 34000 ft 494 kts 308°
2026-05-05 15:56 51.35791 8.37905 34008 ft 494 kts 315°
2026-05-05 15:56 51.40750 8.30281 34000 ft 494 kts 316°
2026-05-05 15:57 51.45727 8.22667 34002 ft 494 kts 315°
2026-05-05 15:57 51.50630 8.15007 33987 ft 484 kts 315°
2026-05-05 15:58 51.55432 8.07410 34006 ft 485 kts 315°
2026-05-05 15:58 51.60209 7.99815 34005 ft 487 kts 315°
2026-05-05 15:59 51.65027 7.92138 33995 ft 484 kts 315°
2026-05-05 15:59 51.67386 7.88373 33987 ft 472 kts 315°
2026-05-05 15:59 51.69696 7.84681 33959 ft 465 kts 315°
2026-05-05 15:59 51.71989 7.81012 33606 ft 460 kts 315°
2026-05-05 16:00 51.74234 7.77413 33219 ft 452 kts 315°
2026-05-05 16:00 51.76447 7.73860 32813 ft 446 kts 315°
2026-05-05 16:00 51.78633 7.70345 32406 ft 441 kts 315°
2026-05-05 16:00 51.80792 7.66866 31999 ft 436 kts 315°
2026-05-05 16:01 51.82921 7.63433 31596 ft 431 kts 315°
2026-05-05 16:01 51.85035 7.60021 31195 ft 426 kts 314°
2026-05-05 16:01 51.87117 7.56652 30800 ft 422 kts 314°
2026-05-05 16:01 51.89184 7.53305 30407 ft 418 kts 314°
2026-05-05 16:02 51.91224 7.49997 30018 ft 414 kts 314°
2026-05-05 16:02 51.93247 7.46712 29630 ft 409 kts 314°
2026-05-05 16:02 51.95249 7.43457 29231 ft 405 kts 314°
2026-05-05 16:02 51.97226 7.40237 28832 ft 401 kts 314°
2026-05-05 16:03 51.99186 7.37043 28438 ft 397 kts 314°
2026-05-05 16:03 52.01128 7.33872 27986 ft 395 kts 314°
2026-05-05 16:03 52.03051 7.30729 27648 ft 390 kts 314°
2026-05-05 16:03 52.04954 7.27614 27261 ft 386 kts 314°
2026-05-05 16:04 52.06836 7.24529 26882 ft 383 kts 314°
2026-05-05 16:04 52.08710 7.21452 26505 ft 382 kts 314°
2026-05-05 16:04 52.10575 7.18391 26126 ft 381 kts 314°
2026-05-05 16:04 52.12448 7.15309 25758 ft 388 kts 314°
2026-05-05 16:05 52.14370 7.12144 25368 ft 395 kts 314°
2026-05-05 16:05 52.16197 7.08838 24952 ft 391 kts 309°
2026-05-05 16:05 52.17875 7.05382 24546 ft 387 kts 307°
2026-05-05 16:05 52.19517 7.01931 24150 ft 383 kts 307°
2026-05-05 16:06 52.21150 6.98537 23763 ft 379 kts 308°
2026-05-05 16:06 52.22783 6.95200 23383 ft 374 kts 308°
2026-05-05 16:06 52.24420 6.91924 23006 ft 370 kts 309°
2026-05-05 16:06 52.26045 6.88689 22636 ft 367 kts 309°
2026-05-05 16:07 52.27652 6.85483 22268 ft 363 kts 309°
2026-05-05 16:07 52.29241 6.82304 21904 ft 359 kts 309°
2026-05-05 16:07 52.30811 6.79151 21543 ft 356 kts 308°
2026-05-05 16:07 52.32322 6.75979 21062 ft 355 kts 302°
2026-05-05 16:08 52.33365 6.72307 20532 ft 356 kts 287°
2026-05-05 16:08 52.34031 6.68397 20055 ft 357 kts 284°
2026-05-05 16:08 52.34640 6.64477 19840 ft 359 kts 283°
2026-05-05 16:08 52.35258 6.60423 19578 ft 375 kts 283°
2026-05-05 16:09 52.35897 6.56256 19210 ft 378 kts 284°
2026-05-05 16:09 52.36529 6.52166 18798 ft 373 kts 284°
2026-05-05 16:09 52.37163 6.48091 18389 ft 368 kts 284°
2026-05-05 16:09 52.37792 6.44061 17984 ft 363 kts 284°
2026-05-05 16:10 52.38414 6.40087 17584 ft 358 kts 284°
2026-05-05 16:10 52.39027 6.36166 17188 ft 354 kts 284°
2026-05-05 16:10 52.39634 6.32280 16795 ft 350 kts 284°
2026-05-05 16:10 52.40232 6.28442 16404 ft 346 kts 284°
2026-05-05 16:11 52.40823 6.24642 16019 ft 342 kts 284°
2026-05-05 16:11 52.42552 6.13464 14879 ft 333 kts 284°
2026-05-05 16:12 52.43116 6.09804 14506 ft 330 kts 284°
2026-05-05 16:12 52.44224 6.02585 13765 ft 324 kts 283°
2026-05-05 16:13 52.45865 5.91834 12671 ft 328 kts 283°
2026-05-05 16:13 52.46421 5.88177 12294 ft 332 kts 283°
2026-05-05 16:13 52.46979 5.84495 11908 ft 332 kts 283°
2026-05-05 16:14 52.48077 5.77231 11146 ft 324 kts 283°
2026-05-05 16:14 52.49147 5.70126 10494 ft 315 kts 283°
2026-05-05 16:15 52.50159 5.63371 10212 ft 295 kts 283°
2026-05-05 16:15 52.50787 5.56976 9929 ft 277 kts 259°
2026-05-05 16:16 52.49152 5.51270 9468 ft 281 kts 238°
2026-05-05 16:16 52.47084 5.45783 8929 ft 282 kts 238°
2026-05-05 16:17 52.45042 5.40337 8391 ft 278 kts 238°
2026-05-05 16:17 52.44038 5.37641 8125 ft 276 kts 238°
2026-05-05 16:18 52.42053 5.32295 7605 ft 273 kts 238°
2026-05-05 16:18 52.41071 5.29646 7350 ft 271 kts 238°
2026-05-05 16:18 52.39125 5.24400 6841 ft 268 kts 238°
2026-05-05 16:19 52.38172 5.21836 6594 ft 267 kts 238°
2026-05-05 16:19 52.37199 5.19215 6333 ft 266 kts 238°
2026-05-05 16:19 52.35298 5.14110 5842 ft 263 kts 238°
2026-05-05 16:20 52.33409 5.09008 5349 ft 261 kts 242°
2026-05-05 16:20 52.31647 5.04047 5064 ft 248 kts 238°
2026-05-05 16:21 52.29840 4.99361 4724 ft 239 kts 237°
2026-05-05 16:22 52.27218 4.92682 4187 ft 229 kts 234°
2026-05-05 16:22 52.25299 4.88523 3780 ft 231 kts 232°
2026-05-05 16:23 52.23330 4.84320 3414 ft 234 kts 232°
2026-05-05 16:23 52.22346 4.82223 3247 ft 231 kts 232°
2026-05-05 16:23 52.20409 4.78100 2946 ft 229 kts 233°
2026-05-05 16:24 52.19508 4.75941 2807 ft 231 kts 237°
2026-05-05 16:24 52.18643 4.73745 2655 ft 229 kts 237°
2026-05-05 16:24 52.17015 4.69589 2442 ft 204 kts 238°
2026-05-05 16:25 52.16612 4.67477 2289 ft 194 kts 272°
2026-05-05 16:25 52.18184 4.64317 2151 ft 194 kts 332°
2026-05-05 16:25 52.19390 4.63317 2170 ft 194 kts 332°
2026-05-05 16:26 52.21941 4.62486 1940 ft 191 kts 17°
2026-05-05 16:26 52.24327 4.63856 1638 ft 176 kts 35°
2026-05-05 16:27 52.25267 4.65033 1406 ft 164 kts 37°
2026-05-05 16:27 52.26050 4.66309 1109 ft 158 kts 56°
2026-05-05 16:27 52.26634 4.67807 873 ft 157 kts 57°
2026-05-05 16:27 52.27228 4.69320 657 ft 159 kts 58°
2026-05-05 16:28 52.27813 4.70856 437 ft 159 kts 58°
2026-05-05 16:28 52.28398 4.72377 229 ft 157 kts 58°
2026-05-05 16:28 52.28974 4.73885 25 ft 155 kts 58°
2026-05-05 16:28 52.29494 4.75242 -3 ft 122 kts 58°
2026-05-05 16:29 52.29810 4.76067 -5 ft 51 kts 58°
2026-05-05 16:29 52.29952 4.76423 -4 ft 25 kts 51°
2026-05-05 16:29 52.30082 4.76588 -3 ft 23 kts 27°
2026-05-05 16:29 52.30208 4.76693 -2 ft 19 kts 28°
2026-05-05 16:30 52.30307 4.76739 -2 ft 9 kts 345°
2026-05-05 16:30 52.30349 4.76671 -2 ft 9 kts 282°
2026-05-05 16:30 52.30369 4.76581 -2 ft 9 kts 319°
2026-05-05 16:30 52.30413 4.76532 -2 ft 6 kts 328°
2026-05-05 16:31 52.30443 4.76515 -2 ft 4 kts 20°
2026-05-05 16:31 52.30461 4.76552 -2 ft 4 kts 58°
2026-05-05 16:31 52.30467 4.76568 -2 ft 0 kts 58°